Location: Cheadle
(51.0146°N, 113.5417°W)
Time: 04:48:29
(UTC+00:00)

RS-44 - Pass Details

Date: 14 December 2023
Orbit: 1175 x 1510 km, 82.5° (Epoch: 22 February)

Event Time Altitude Azimuth Distance (km) Brightness Sun altitude
Rises 03:20:16 0° 351° (N) 4,122 ? -35.2°
Reaches altitude 10° 03:23:14 10° 360° (N) 3,131 ? -35.7°
Enters shadow 03:24:22 15° 4° (N) 2,779 ? -35.9°
